Tracking 19149 objects as of 21-Apr-2018
HD Live streaming from Space Station
objects crossing your sky now

FENGYUN 1C DEB

Track FENGYUN 1C DEB now!
10-day predictions


NORAD ID: 33711
Int'l Code: 1999-025DGY
Perigee: 834.3 km
Apogee: 993.8 km
Inclination: 99.3 °
Period: 103.1 minutes
Semi major axis: 7285 km
RCS: 0.0056 m2 (small)
Launch date: May 10, 1999
Source: People's Republic of China (PRC)
Launch site: Taiyaun Space Center, China (TSC)

Note: This is SATELLITE DEBRIS
aabbcc
Your satellite tracking list
Your tracking list is empty




NASA's NSSDC Master Catalog

Two Line Element Set (TLE):
1 33711U 99025DGY 18110.87870372 +.00000628 +00000-0 +46482-3 0  9996
2 33711 099.2905 091.4006 0109496 102.5315 289.5930 13.96220000529169
Source of the keplerian elements: AFSPC